When you browse on this site, cookies collect data to enhance your experience and personalize the content and advertising you see.
Visit our Privacy Policy to learn more. By continuing to use the site, you agree to this use of cookies and data.
EN

Hourly Weather Kalol

Today, 14 August, Friday

Time Temperature Precipitation Wind Pressure Humidity
00:00 +27°C° 1.7 mm 6 mps 743 mmHg 95%
01:00 +27°C° 1.7 mm 6 mps 742 mmHg 95%
02:00 +27°C° 1.7 mm 6 mps 742 mmHg 95%
03:00 +27°C° 2.4 mm 5 mps 742 mmHg 95%
04:00 +27°C° 2.4 mm 5 mps 742 mmHg 95%
05:00 +27°C° 0 mm 6 mps 741 mmHg 97%
06:00 +27°C° 2.8 mm 5 mps 742 mmHg 96%
07:00 +27°C° 2.8 mm 5 mps 742 mmHg 95%
08:00 +27°C° 2.8 mm 4 mps 742 mmHg 94%
09:00 +28°C° 1.1 mm 5 mps 742 mmHg 94%
10:00 +28°C° 1.1 mm 5 mps 742 mmHg 94%
11:00 +28°C° 0 mm 5 mps 743 mmHg 93%
12:00 +28°C° 1 mm 5 mps 742 mmHg 93%
13:00 +28°C° 1 mm 6 mps 742 mmHg 94%
14:00 +28°C° 1 mm 6 mps 741 mmHg 94%
15:00 +27°C° 1.2 mm 6 mps 741 mmHg 94%
16:00 +27°C° 1.2 mm 6 mps 741 mmHg 94%
17:00 +27°C° 0 mm 7 mps 741 mmHg 93%
18:00 +27°C° 0.6 mm 6 mps 741 mmHg 93%
19:00 +27°C° 0.6 mm 6 mps 742 mmHg 93%
20:00 +27°C° 0.6 mm 6 mps 742 mmHg 94%
21:00 +27°C° 1.1 mm 6 mps 743 mmHg 94%
22:00 +27°C° 1.1 mm 6 mps 743 mmHg 94%
23:00 +27°C° 1.1 mm 6 mps 743 mmHg 94%

Tomorrow, 15 August, Saturday

Time Temperature Precipitation Wind Pressure Humidity
00:00 +27°C° 1.2 mm 5 mps 742 mmHg 94%
01:00 +27°C° 1.2 mm 5 mps 742 mmHg 94%
02:00 +27°C° 1.2 mm 5 mps 741 mmHg 94%
03:00 +27°C° 0.3 mm 4 mps 741 mmHg 94%
04:00 +27°C° 0.3 mm 4 mps 741 mmHg 94%
05:00 +27°C° 0.3 mm 3 mps 741 mmHg 94%
06:00 +27°C° 0.1 mm 4 mps 742 mmHg 93%
07:00 +28°C° 0.1 mm 4 mps 742 mmHg 92%
08:00 +28°C° 0.1 mm 4 mps 742 mmHg 91%
09:00 +29°C° 0.4 mm 4 mps 742 mmHg 88%
10:00 +30°C° 0.4 mm 4 mps 743 mmHg 86%
11:00 +30°C° 0.4 mm 4 mps 743 mmHg 83%
12:00 +32°C° 1 mm 4 mps 742 mmHg 81%
13:00 +32°C° 1 mm 4 mps 742 mmHg 79%
14:00 +33°C° 1 mm 5 mps 741 mmHg 77%
15:00 +33°C° 1.7 mm 5 mps 741 mmHg 78%
16:00 +32°C° 1.7 mm 6 mps 741 mmHg 80%
17:00 +32°C° 1.7 mm 6 mps 741 mmHg 82%
18:00 +30°C° 0.7 mm 6 mps 742 mmHg 83%
19:00 +29°C° 0.7 mm 6 mps 742 mmHg 85%
20:00 +28°C° 0.7 mm 5 mps 743 mmHg 87%
21:00 +28°C° 0.1 mm 5 mps 743 mmHg 88%
22:00 +28°C° 0.1 mm 5 mps 744 mmHg 88%
23:00 +28°C° 0.1 mm 5 mps 744 mmHg 89%

Day after tomorrow, 16 August, Sunday

Time Temperature Precipitation Wind Pressure Humidity
00:00 +28°C° 0.1 mm 5 mps 743 mmHg 89%
01:00 +28°C° 0.1 mm 5 mps 743 mmHg 89%
02:00 +28°C° 0.1 mm 5 mps 742 mmHg 89%
03:00 +28°C° 0 mm 4 mps 742 mmHg 90%
04:00 +27°C° 0 mm 4 mps 742 mmHg 91%
05:00 +27°C° 0 mm 3 mps 742 mmHg 91%
06:00 +28°C° 0 mm 4 mps 743 mmHg 89%
07:00 +29°C° 0 mm 5 mps 743 mmHg 86%
08:00 +29°C° 0 mm 5 mps 744 mmHg 84%
09:00 +30°C° 0.2 mm 5 mps 743 mmHg 81%
10:00 +32°C° 0.2 mm 5 mps 743 mmHg 77%
11:00 +33°C° 0.2 mm 5 mps 743 mmHg 74%
12:00 +34°C° 1.2 mm 5 mps 743 mmHg 72%
13:00 +34°C° 1.2 mm 5 mps 742 mmHg 71%
14:00 +34°C° 1.2 mm 5 mps 742 mmHg 69%
15:00 +34°C° 1.9 mm 5 mps 742 mmHg 73%
16:00 +33°C° 1.9 mm 4 mps 742 mmHg 76%
17:00 +32°C° 1.9 mm 4 mps 742 mmHg 79%
18:00 +32°C° 1.9 mm 4 mps 742 mmHg 81%
19:00 +30°C° 1.9 mm 4 mps 743 mmHg 84%
20:00 +29°C° 1.9 mm 5 mps 743 mmHg 86%
21:00 +29°C° 1.4 mm 5 mps 743 mmHg 87%
22:00 +29°C° 1.4 mm 5 mps 744 mmHg 87%
23:00 +29°C° 1.4 mm 6 mps 744 mmHg 88%

17 August, Monday

Time Temperature Precipitation Wind Pressure Humidity
00:00 +28°C° 0.2 mm 5 mps 743 mmHg 89%
01:00 +28°C° 0.2 mm 5 mps 743 mmHg 89%
02:00 +28°C° 0.2 mm 4 mps 743 mmHg 90%
03:00 +28°C° 0.2 mm 4 mps 743 mmHg 90%
04:00 +28°C° 0.2 mm 4 mps 742 mmHg 90%
05:00 +28°C° 0.2 mm 3 mps 742 mmHg 91%
06:00 +28°C° 0.1 mm 3 mps 743 mmHg 91%
07:00 +28°C° 0.1 mm 3 mps 743 mmHg 90%
08:00 +28°C° 0.1 mm 3 mps 744 mmHg 90%
09:00 +29°C° 0.5 mm 3 mps 744 mmHg 86%
10:00 +30°C° 0.5 mm 4 mps 744 mmHg 83%
11:00 +32°C° 0.5 mm 5 mps 744 mmHg 79%
12:00 +32°C° 1 mm 5 mps 743 mmHg 77%
13:00 +33°C° 1 mm 5 mps 743 mmHg 74%
14:00 +34°C° 1 mm 5 mps 742 mmHg 72%
15:00 +33°C° 0.6 mm 5 mps 742 mmHg 73%
16:00 +33°C° 0.6 mm 4 mps 742 mmHg 73%
17:00 +33°C° 0.6 mm 4 mps 741 mmHg 74%
18:00 +32°C° 0.5 mm 4 mps 742 mmHg 78%
19:00 +30°C° 0.5 mm 4 mps 742 mmHg 81%
20:00 +29°C° 0.5 mm 3 mps 743 mmHg 85%
21:00 +29°C° 0.3 mm 4 mps 743 mmHg 85%
22:00 +29°C° 0.3 mm 4 mps 743 mmHg 86%
23:00 +29°C° 0.3 mm 4 mps 744 mmHg 87%

18 August, Tuesday

Time Temperature Precipitation Wind Pressure Humidity
00:00 +28°C° 0.7 mm 4 mps 743 mmHg 88%
01:00 +28°C° 0.7 mm 4 mps 743 mmHg 89%
02:00 +28°C° 0.7 mm 5 mps 743 mmHg 89%
03:00 +28°C° 0.5 mm 4 mps 743 mmHg 90%
04:00 +28°C° 0.5 mm 4 mps 743 mmHg 90%
05:00 +28°C° 0.5 mm 4 mps 743 mmHg 90%
06:00 +28°C° 0.3 mm 4 mps 743 mmHg 90%
07:00 +28°C° 0.3 mm 3 mps 744 mmHg 89%
08:00 +28°C° 0.3 mm 3 mps 744 mmHg 89%
09:00 +29°C° 0.3 mm 4 mps 744 mmHg 86%
10:00 +29°C° 0.3 mm 4 mps 744 mmHg 83%
11:00 +30°C° 0.3 mm 4 mps 744 mmHg 80%
12:00 +32°C° 0.7 mm 4 mps 743 mmHg 78%
13:00 +32°C° 0.7 mm 4 mps 743 mmHg 75%
14:00 +33°C° 0.7 mm 4 mps 742 mmHg 72%
15:00 +33°C° 1.5 mm 4 mps 742 mmHg 75%
16:00 +32°C° 1.5 mm 4 mps 742 mmHg 78%
17:00 +30°C° 1.5 mm 4 mps 742 mmHg 81%
18:00 +30°C° 1.8 mm 4 mps 742 mmHg 83%
19:00 +29°C° 1.8 mm 4 mps 743 mmHg 85%
20:00 +29°C° 1.8 mm 4 mps 743 mmHg 87%
21:00 +29°C° 1.4 mm 4 mps 743 mmHg 88%
22:00 +28°C° 1.4 mm 4 mps 743 mmHg 89%
23:00 +28°C° 1.4 mm 4 mps 743 mmHg 91%

19 August, Wednesday

Time Temperature Precipitation Wind Pressure Humidity
00:00 +28°C° 1.3 mm 4 mps 743 mmHg 91%
01:00 +28°C° 1.3 mm 4 mps 742 mmHg 92%
02:00 +27°C° 1.3 mm 4 mps 742 mmHg 93%
03:00 +27°C° 1 mm 4 mps 742 mmHg 92%
04:00 +27°C° 1 mm 4 mps 742 mmHg 92%
05:00 +27°C° 1 mm 4 mps 742 mmHg 92%
06:00 +28°C° 0.9 mm 4 mps 742 mmHg 89%
07:00 +28°C° 0.9 mm 5 mps 742 mmHg 87%
08:00 +29°C° 0.9 mm 5 mps 743 mmHg 85%
09:00 +30°C° 1.2 mm 5 mps 743 mmHg 82%
10:00 +32°C° 1.2 mm 6 mps 743 mmHg 78%
11:00 +33°C° 1.2 mm 6 mps 743 mmHg 75%
12:00 +33°C° 1.2 mm 6 mps 742 mmHg 75%
13:00 +33°C° 1.2 mm 6 mps 742 mmHg 74%
14:00 +33°C° 1.2 mm 6 mps 741 mmHg 74%
15:00 +33°C° 1.5 mm 6 mps 741 mmHg 76%
16:00 +32°C° 1.5 mm 5 mps 741 mmHg 79%
17:00 +32°C° 1.5 mm 5 mps 741 mmHg 81%
18:00 +30°C° 1.1 mm 5 mps 741 mmHg 83%
19:00 +29°C° 1.1 mm 4 mps 742 mmHg 85%
20:00 +28°C° 1.1 mm 4 mps 742 mmHg 88%
21:00 +28°C° 0.6 mm 4 mps 743 mmHg 88%
22:00 +28°C° 0.6 mm 4 mps 743 mmHg 89%
23:00 +28°C° 0.6 mm 3 mps 743 mmHg 89%
Show more